Location: El Gallo
(32.4380°N, 116.9347°W)
Time: 19:38:06
(UTC+00:00)

COSMOS 2406 - Pass Details

Date: 01 October 2022
Orbit: 843 x 863 km, 71.0° (Epoch: 01 December)

Event Time Altitude Azimuth Distance (km) Brightness Sun altitude
Exits shadow 12:14:58 27° 299° (WNW) 1,574 4.2 -19.1°
Drops below altitude 10° 12:19:40 10° 355° (N) 2,465 5.7 -18.1°
Sets 12:22:31 0° 8° (N) 3,404 6.5 -17.5°
